QPF
0.07 0.07 0.07 0.05 0.05 0.04 0.06 0.05 0.05 0.05 0.04 0.05 0.05 0.06 0.07 0.10 0.12 0.10 0.09 0.08 0.06 0.07 0.08 0.10 0.11 0.11 0.13 0.14 0.16 0.18 0.21 0.23 0.17 0.11 0.06 0.04 0.05 0.06 0.06 0.05 0.05 0.04 0.03
0.09 0.08 0.08 0.07 0.06 0.05 0.05 0.05 0.05 0.06 0.06 0.05 0.06 0.07 0.08 0.09 0.09 0.08 0.09 0.09 0.06 0.06 0.06 0.08 0.11 0.09 0.10 0.11 0.15 0.21 0.30 0.30 0.22 0.15 0.09 0.06 0.06 0.06 0.07 0.06 0.04 0.03 0.02
0.09 0.08 0.08 0.07 0.06 0.04 0.05 0.05 0.07 0.06 0.07 0.07 0.07 0.08 0.08 0.10 0.09 0.10 0.10 0.08 0.07 0.05 0.06 0.07 0.11 0.12 0.13 0.07 0.06 0.13 0.24 0.22 0.18 0.16 0.12 0.08 0.07 0.06 0.05 0.06 0.06 0.05 0.04
0.09 0.09 0.08 0.07 0.06 0.05 0.06 0.07 0.07 0.06 0.08 0.08 0.08 0.07 0.07 0.10 0.09 0.10 0.12 0.10 0.08 0.05 0.05 0.06 0.10 0.15 0.17 0.14 0.09 0.07 0.12 0.14 0.13 0.13 0.13 0.11 0.08 0.07 0.06 0.06 0.05 0.05 0.05
0.09 0.08 0.08 0.08 0.07 0.06 0.06 0.06 0.08 0.07 0.09 0.09 0.09 0.09 0.07 0.09 0.08 0.07 0.09 0.10 0.12 0.10 0.07 0.06 0.08 0.12 0.14 0.19 0.17 0.12 0.14 0.21 0.25 0.25 0.20 0.14 0.08 0.05 0.05 0.05 0.04 0.03 0.04
0.07 0.07 0.07 0.09 0.09 0.08 0.08 0.09 0.10 0.10 0.09 0.10 0.10 0.08 0.06 0.04 0.06 0.07 0.06 0.06 0.06 0.07 0.09 0.10 0.10 0.11 0.13 0.15 0.21 0.21 0.19 0.21 0.20 0.19 0.18 0.14 0.09 0.07 0.05 0.05 0.04 0.03 0.04
0.06 0.07 0.07 0.08 0.09 0.09 0.09 0.09 0.11 0.11 0.11 0.11 0.10 0.07 0.06 0.04 0.05 0.06 0.05 0.05 0.05 0.05 0.07 0.10 0.13 0.12 0.11 0.12 0.14 0.20 0.20 0.18 0.16 0.15 0.17 0.19 0.16 0.11 0.08 0.06 0.05 0.05 0.05
0.04 0.05 0.06 0.05 0.06 0.09 0.11 0.12 0.13 0.13 0.10 0.08 0.10 0.10 0.10 0.10 0.06 0.04 0.04 0.04 0.04 0.04 0.03 0.05 0.08 0.10 0.10 0.09 0.07 0.08 0.14 0.18 0.18 0.18 0.21 0.24 0.22 0.17 0.12 0.09 0.07 0.06 0.05
0.05 0.05 0.05 0.04 0.06 0.08 0.12 0.14 0.13 0.14 0.10 0.07 0.07 0.10 0.12 0.10 0.07 0.05 0.03 0.04 0.04 0.04 0.04 0.05 0.05 0.07 0.10 0.09 0.07 0.05 0.04 0.07 0.09 0.12 0.16 0.20 0.20 0.18 0.15 0.12 0.09 0.06 0.04
0.04 0.04 0.04 0.05 0.06 0.07 0.11 0.11 0.10 0.11 0.10 0.07 0.06 0.05 0.06 0.08 0.08 0.09 0.08 0.08 0.07 0.06 0.05 0.05 0.06 0.08 0.09 0.07 0.06 0.03 0.02 0.02 0.03 0.05 0.08 0.11 0.13 0.15 0.15 0.12 0.09 0.06 0.05
0.05 0.04 0.04 0.05 0.05 0.06 0.08 0.10 0.12 0.10 0.08 0.06 0.05 0.05 0.05 0.07 0.08 0.09 0.09 0.08 0.08 0.08 0.06 0.06 0.07 0.08 0.10 0.10 0.05 0.02 0.02 0.02 0.02 0.02 0.03 0.04 0.06 0.08 0.11 0.13 0.11 0.07 0.05
0.06 0.04 0.05 0.05 0.04 0.05 0.06 0.07 0.09 0.09 0.09 0.07 0.06 0.04 0.04 0.05 0.06 0.08 0.09 0.09 0.09 0.09 0.06 0.07 0.06 0.07 0.07 0.04 0.03 0.03 0.03 0.02 0.01 0.01 0.01 0.01 0.02 0.05 0.08 0.09 0.09 0.09 0.07
0.04 0.03 0.04 0.05 0.05 0.05 0.06 0.08 0.09 0.09 0.09 0.08 0.06 0.05 0.04 0.03 0.04 0.05 0.07 0.07 0.08 0.07 0.05 0.05 0.05 0.05 0.04 0.03 0.03 0.03 0.02 0.02 0.01 0.00 0.00 0.01 0.01 0.02 0.04 0.07 0.07 0.07 0.06
0.04 0.03 0.03 0.04 0.04 0.04 0.05 0.07 0.10 0.11 0.11 0.09 0.08 0.08 0.06 0.03 0.03 0.04 0.05 0.07 0.07 0.05 0.03 0.04 0.04 0.04 0.04 0.03 0.02 0.03 0.02 0.02 0.02 0.01 0.01 0.01 0.01 0.02 0.03 0.04 0.06 0.06 0.05
0.04 0.04 0.04 0.04 0.04 0.04 0.04 0.05 0.07 0.08 0.10 0.09 0.08 0.09 0.07 0.05 0.04 0.03 0.03 0.06 0.08 0.07 0.05 0.04 0.05 0.04 0.03 0.04 0.03 0.02 0.02 0.02 0.02 0.02 0.01 0.01 0.01 0.01 0.02 0.03 0.05 0.05 0.05
0.02 0.03 0.03 0.03 0.03 0.04 0.03 0.04 0.05 0.06 0.07 0.07 0.07 0.08 0.08 0.06 0.06 0.04 0.03 0.04 0.06 0.08 0.06 0.04 0.04 0.03 0.03 0.03 0.04 0.02 0.01 0.01 0.01 0.01 0.01 0.01 0.01 0.01 0.02 0.02 0.03 0.04 0.05
0.01 0.02 0.02 0.02 0.03 0.03 0.04 0.04 0.04 0.05 0.06 0.06 0.05 0.06 0.05 0.05 0.05 0.05 0.05 0.05 0.05 0.07 0.06 0.04 0.04 0.05 0.05 0.05 0.04 0.02 0.01 0.01 0.01 0.01 0.01 0.01 0.01 0.02 0.03 0.03 0.02 0.03 0.03
0.01 0.01 0.01 0.01 0.02 0.03 0.04 0.04 0.04 0.06 0.08 0.08 0.07 0.07 0.07 0.07 0.06 0.06 0.05 0.05 0.05 0.07 0.07 0.07 0.06 0.06 0.07 0.07 0.05 0.04 0.02 0.01 0.01 0.02 0.01 0.01 0.01 0.02 0.02 0.03 0.03 0.03 0.02
0.02 0.01 0.01 0.01 0.02 0.02 0.03 0.03 0.05 0.06 0.07 0.07 0.08 0.08 0.07 0.08 0.07 0.06 0.06 0.06 0.05 0.06 0.07 0.07 0.06 0.08 0.06 0.06 0.06 0.04 0.03 0.04 0.02 0.02 0.02 0.01 0.01 0.01 0.01 0.02 0.02 0.02 0.02
0.03 0.02 0.02 0.02 0.02 0.02 0.01 0.02 0.04 0.05 0.06 0.06 0.08 0.08 0.07 0.08 0.07 0.07 0.07 0.07 0.06 0.06 0.06 0.06 0.06 0.07 0.06 0.06 0.06 0.06 0.05 0.05 0.03 0.02 0.02 0.01 0.01 0.01 0.01 0.01 0.01 0.01 0.01
0.02 0.02 0.02 0.02 0.02 0.02 0.01 0.02 0.03 0.03 0.05 0.06 0.07 0.08 0.08 0.08 0.08 0.08 0.06 0.06 0.06 0.05 0.05 0.06 0.06 0.06 0.06 0.07 0.05 0.06 0.07 0.07 0.06 0.05 0.04 0.03 0.02 0.02 0.02 0.01 0.01 0.00 0.00
0.02 0.02 0.02 0.02 0.02 0.01 0.02 0.02 0.01 0.02 0.02 0.03 0.04 0.06 0.07 0.07 0.08 0.08 0.07 0.06 0.06 0.06 0.06 0.07 0.07 0.06 0.07 0.06 0.07 0.08 0.09 0.08 0.07 0.06 0.06 0.05 0.06 0.04 0.03 0.03 0.02 0.02 0.01
0.01 0.02 0.02 0.02 0.02 0.02 0.01 0.01 0.01 0.02 0.02 0.02 0.03 0.04 0.04 0.06 0.09 0.10 0.10 0.10 0.07 0.06 0.06 0.08 0.08 0.07 0.07 0.07 0.09 0.08 0.08 0.08 0.07 0.06 0.07 0.05 0.06 0.06 0.04 0.04 0.05 0.04 0.02
0.01 0.02 0.02 0.02 0.02 0.02 0.01 0.01 0.01 0.02 0.02 0.02 0.02 0.03 0.04 0.04 0.06 0.08 0.09 0.09 0.08 0.07 0.06 0.05 0.06 0.06 0.06 0.07 0.07 0.08 0.08 0.08 0.08 0.07 0.08 0.06 0.05 0.04 0.03 0.04 0.06 0.06 0.04
0.02 0.03 0.02 0.02 0.02 0.02 0.01 0.01 0.01 0.01 0.03 0.04 0.03 0.03 0.04 0.05 0.07 0.09 0.09 0.09 0.09 0.09 0.09 0.08 0.07 0.06 0.06 0.06 0.05 0.06 0.06 0.06 0.05 0.04 0.06 0.07 0.06 0.06 0.05 0.04 0.06 0.06 0.06
0.03 0.03 0.02 0.01 0.02 0.02 0.02 0.00 0.01 0.01 0.03 0.03 0.03 0.03 0.04 0.04 0.05 0.07 0.06 0.06 0.07 0.08 0.10 0.11 0.09 0.07 0.06 0.06 0.05 0.04 0.04 0.04 0.03 0.02 0.03 0.05 0.05 0.07 0.10 0.08 0.06 0.05 0.04
MSLP
1006.18 1006.25 1006.30 1006.34 1006.40 1006.50 1006.64 1006.81 1007.02 1007.24 1007.47 1007.71 1007.99 1008.30 1008.69 1009.14 1009.65 1010.22 1010.80 1011.38 1011.91 1012.39 1012.81 1013.18 1013.50 1013.81 1014.09 1014.38 1014.66 1014.93 1015.19 1015.44 1015.68 1015.92 1016.16 1016.42 1016.69 1016.98 1017.25 1017.51 1017.73 1017.91 1018.03
1006.52 1006.58 1006.62 1006.67 1006.74 1006.85 1007.00 1007.18 1007.39 1007.60 1007.82 1008.05 1008.29 1008.57 1008.91 1009.30 1009.77 1010.29 1010.84 1011.39 1011.93 1012.42 1012.86 1013.25 1013.59 1013.89 1014.17 1014.43 1014.68 1014.92 1015.15 1015.38 1015.61 1015.86 1016.11 1016.39 1016.67 1016.95 1017.23 1017.48 1017.69 1017.87 1017.99
1006.74 1006.79 1006.85 1006.91 1007.02 1007.16 1007.34 1007.55 1007.76 1007.98 1008.19 1008.41 1008.63 1008.88 1009.17 1009.53 1009.94 1010.41 1010.91 1011.41 1011.92 1012.39 1012.82 1013.20 1013.53 1013.83 1014.10 1014.34 1014.57 1014.80 1015.03 1015.25 1015.49 1015.74 1016.01 1016.28 1016.57 1016.85 1017.13 1017.37 1017.59 1017.78 1017.93
1006.81 1006.86 1006.94 1007.05 1007.21 1007.40 1007.62 1007.86 1008.10 1008.33 1008.55 1008.76 1008.97 1009.21 1009.47 1009.79 1010.15 1010.55 1010.99 1011.43 1011.87 1012.29 1012.67 1013.01 1013.33 1013.61 1013.87 1014.11 1014.35 1014.59 1014.83 1015.07 1015.31 1015.57 1015.84 1016.11 1016.40 1016.67 1016.95 1017.20 1017.44 1017.64 1017.82
1006.77 1006.82 1006.93 1007.09 1007.30 1007.55 1007.82 1008.10 1008.37 1008.62 1008.85 1009.06 1009.28 1009.51 1009.76 1010.04 1010.36 1010.70 1011.06 1011.42 1011.77 1012.10 1012.41 1012.70 1012.97 1013.24 1013.50 1013.77 1014.03 1014.30 1014.57 1014.84 1015.11 1015.38 1015.65 1015.91 1016.19 1016.46 1016.72 1016.98 1017.23 1017.47 1017.68
1006.67 1006.73 1006.87 1007.07 1007.34 1007.64 1007.95 1008.27 1008.56 1008.82 1009.06 1009.29 1009.51 1009.74 1009.99 1010.25 1010.53 1010.81 1011.09 1011.35 1011.60 1011.83 1012.05 1012.27 1012.51 1012.76 1013.03 1013.33 1013.64 1013.96 1014.28 1014.59 1014.89 1015.18 1015.45 1015.71 1015.96 1016.22 1016.48 1016.74 1017.00 1017.26 1017.51
1006.60 1006.65 1006.81 1007.05 1007.35 1007.69 1008.03 1008.35 1008.65 1008.93 1009.17 1009.41 1009.63 1009.87 1010.12 1010.37 1010.61 1010.84 1011.05 1011.22 1011.36 1011.49 1011.62 1011.77 1011.96 1012.19 1012.49 1012.82 1013.19 1013.57 1013.96 1014.33 1014.67 1014.97 1015.25 1015.50 1015.74 1015.98 1016.23 1016.49 1016.76 1017.03 1017.31
1006.57 1006.61 1006.78 1007.03 1007.35 1007.70 1008.05 1008.37 1008.66 1008.92 1009.15 1009.39 1009.63 1009.87 1010.12 1010.37 1010.59 1010.78 1010.92 1011.01 1011.06 1011.09 1011.14 1011.22 1011.37 1011.59 1011.90 1012.27 1012.70 1013.15 1013.60 1014.03 1014.41 1014.74 1015.03 1015.29 1015.52 1015.75 1015.99 1016.24 1016.52 1016.80 1017.09
1006.63 1006.65 1006.79 1007.03 1007.34 1007.67 1007.99 1008.29 1008.55 1008.78 1009.00 1009.22 1009.46 1009.72 1009.98 1010.23 1010.45 1010.61 1010.71 1010.73 1010.71 1010.67 1010.64 1010.66 1010.77 1010.97 1011.29 1011.69 1012.16 1012.67 1013.18 1013.65 1014.08 1014.45 1014.77 1015.03 1015.27 1015.51 1015.74 1016.00 1016.27 1016.56 1016.85
1006.73 1006.72 1006.83 1007.03 1007.30 1007.58 1007.85 1008.10 1008.31 1008.50 1008.69 1008.90 1009.14 1009.40 1009.68 1009.95 1010.17 1010.33 1010.40 1010.39 1010.32 1010.23 1010.14 1010.11 1010.17 1010.35 1010.66 1011.07 1011.56 1012.10 1012.65 1013.17 1013.65 1014.06 1014.41 1014.71 1014.97 1015.22 1015.47 1015.73 1016.01 1016.29 1016.59
1006.87 1006.80 1006.85 1007.00 1007.20 1007.41 1007.61 1007.78 1007.93 1008.07 1008.23 1008.42 1008.66 1008.94 1009.23 1009.52 1009.77 1009.94 1010.01 1009.99 1009.90 1009.77 1009.65 1009.57 1009.59 1009.74 1010.01 1010.41 1010.90 1011.45 1012.02 1012.57 1013.09 1013.54 1013.94 1014.29 1014.59 1014.88 1015.15 1015.44 1015.72 1016.01 1016.31
1007.01 1006.88 1006.86 1006.92 1007.03 1007.16 1007.27 1007.36 1007.45 1007.53 1007.65 1007.82 1008.05 1008.34 1008.65 1008.97 1009.24 1009.43 1009.53 1009.53 1009.44 1009.30 1009.15 1009.05 1009.03 1009.13 1009.37 1009.73 1010.19 1010.72 1011.29 1011.87 1012.41 1012.91 1013.36 1013.77 1014.13 1014.47 1014.79 1015.10 1015.41 1015.71 1016.00
1007.17 1006.95 1006.85 1006.82 1006.83 1006.85 1006.87 1006.88 1006.89 1006.92 1006.99 1007.13 1007.35 1007.63 1007.95 1008.29 1008.59 1008.81 1008.94 1008.97 1008.91 1008.78 1008.64 1008.52 1008.48 1008.55 1008.73 1009.05 1009.46 1009.97 1010.52 1011.09 1011.66 1012.21 1012.71 1013.18 1013.61 1014.01 1014.37 1014.73 1015.06 1015.38 1015.69
1007.35 1007.07 1006.87 1006.73 1006.64 1006.56 1006.48 1006.41 1006.34 1006.31 1006.33 1006.42 1006.60 1006.86 1007.17 1007.50 1007.81 1008.07 1008.23 1008.30 1008.28 1008.20 1008.08 1007.99 1007.94 1007.98 1008.13 1008.40 1008.77 1009.24 1009.77 1010.34 1010.92 1011.49 1012.05 1012.57 1013.07 1013.52 1013.94 1014.33 1014.70 1015.03 1015.36
1007.61 1007.25 1006.95 1006.72 1006.53 1006.35 1006.18 1006.02 1005.88 1005.77 1005.72 1005.75 1005.87 1006.07 1006.34 1006.64 1006.93 1007.19 1007.39 1007.51 1007.55 1007.52 1007.47 1007.41 1007.40 1007.45 1007.59 1007.83 1008.17 1008.60 1009.10 1009.66 1010.24 1010.84 1011.43 1012.00 1012.54 1013.04 1013.50 1013.93 1014.32 1014.68 1015.02
1007.95 1007.52 1007.15 1006.83 1006.55 1006.28 1006.03 1005.79 1005.57 1005.37 1005.24 1005.18 1005.20 1005.31 1005.49 1005.72 1005.97 1006.21 1006.42 1006.58 1006.69 1006.74 1006.77 1006.79 1006.84 1006.94 1007.10 1007.34 1007.67 1008.07 1008.56 1009.10 1009.68 1010.29 1010.89 1011.49 1012.05 1012.58 1013.07 1013.51 1013.92 1014.30 1014.66
1008.34 1007.87 1007.44 1007.06 1006.71 1006.38 1006.05 1005.74 1005.43 1005.15 1004.91 1004.73 1004.63 1004.60 1004.65 1004.77 1004.95 1005.14 1005.34 1005.53 1005.70 1005.85 1005.98 1006.11 1006.25 1006.43 1006.64 1006.92 1007.26 1007.66 1008.13 1008.66 1009.23 1009.83 1010.43 1011.02 1011.59 1012.12 1012.61 1013.06 1013.47 1013.87 1014.26
1008.71 1008.22 1007.77 1007.35 1006.96 1006.58 1006.21 1005.83 1005.45 1005.07 1004.71 1004.40 1004.15 1003.96 1003.87 1003.85 1003.91 1004.03 1004.20 1004.41 1004.63 1004.87 1005.11 1005.36 1005.61 1005.89 1006.18 1006.51 1006.89 1007.31 1007.77 1008.28 1008.83 1009.40 1009.98 1010.55 1011.10 1011.61 1012.09 1012.53 1012.95 1013.37 1013.78
1008.98 1008.49 1008.03 1007.61 1007.20 1006.81 1006.40 1005.98 1005.53 1005.07 1004.59 1004.15 1003.73 1003.39 1003.12 1002.95 1002.89 1002.92 1003.04 1003.25 1003.51 1003.83 1004.17 1004.53 1004.90 1005.28 1005.67 1006.06 1006.48 1006.92 1007.39 1007.88 1008.40 1008.94 1009.48 1010.01 1010.53 1011.01 1011.47 1011.90 1012.32 1012.75 1013.20
1009.05 1008.57 1008.13 1007.72 1007.33 1006.93 1006.51 1006.06 1005.57 1005.03 1004.46 1003.89 1003.34 1002.84 1002.42 1002.11 1001.91 1001.85 1001.92 1002.11 1002.39 1002.76 1003.18 1003.64 1004.11 1004.58 1005.05 1005.50 1005.96 1006.41 1006.88 1007.36 1007.85 1008.35 1008.85 1009.35 1009.82 1010.27 1010.71 1011.13 1011.56 1012.02 1012.51
1008.85 1008.41 1008.00 1007.61 1007.24 1006.85 1006.44 1005.97 1005.45 1004.86 1004.22 1003.56 1002.91 1002.29 1001.75 1001.31 1001.01 1000.87 1000.88 1001.03 1001.32 1001.71 1002.18 1002.70 1003.24 1003.77 1004.29 1004.79 1005.27 1005.74 1006.20 1006.67 1007.13 1007.60 1008.07 1008.52 1008.97 1009.40 1009.83 1010.26 1010.71 1011.19 1011.73
1008.43 1008.01 1007.62 1007.26 1006.89 1006.52 1006.10 1005.63 1005.09 1004.47 1003.80 1003.09 1002.37 1001.68 1001.07 1000.56 1000.19 999.97 999.93 1000.06 1000.33 1000.72 1001.21 1001.74 1002.31 1002.87 1003.41 1003.93 1004.42 1004.89 1005.35 1005.79 1006.24 1006.69 1007.13 1007.57 1008.00 1008.43 1008.86 1009.31 1009.79 1010.32 1010.92
1007.84 1007.43 1007.04 1006.68 1006.32 1005.94 1005.51 1005.03 1004.48 1003.85 1003.17 1002.44 1001.71 1001.00 1000.36 999.82 999.42 999.18 999.11 999.20 999.44 999.81 1000.27 1000.80 1001.35 1001.91 1002.45 1002.96 1003.45 1003.91 1004.36 1004.80 1005.24 1005.68 1006.11 1006.55 1006.99 1007.43 1007.89 1008.37 1008.89 1009.47 1010.12
1007.21 1006.79 1006.39 1006.00 1005.60 1005.19 1004.73 1004.23 1003.66 1003.03 1002.34 1001.63 1000.91 1000.23 999.61 999.09 998.69 998.45 998.37 998.44 998.65 998.98 999.40 999.89 1000.41 1000.93 1001.44 1001.94 1002.41 1002.87 1003.33 1003.77 1004.21 1004.67 1005.12 1005.58 1006.04 1006.51 1007.00 1007.51 1008.07 1008.70 1009.39
1006.71 1006.25 1005.80 1005.35 1004.89 1004.40 1003.89 1003.33 1002.72 1002.07 1001.40 1000.71 1000.04 999.40 998.83 998.36 998.00 997.78 997.70 997.75 997.93 998.22 998.59 999.03 999.49 999.97 1000.45 1000.93 1001.41 1001.87 1002.33 1002.80 1003.27 1003.75 1004.24 1004.73 1005.22 1005.72 1006.24 1006.79 1007.38 1008.03 1008.74
1006.43 1005.91 1005.39 1004.85 1004.30 1003.72 1003.11 1002.47 1001.81 1001.13 1000.45 999.79 999.15 998.57 998.07 997.65 997.34 997.15 997.07 997.12 997.27 997.51 997.83 998.21 998.62 999.06 999.52 999.99 1000.47 1000.95 1001.45 1001.95 1002.47 1002.99 1003.51 1004.04 1004.56 1005.09 1005.63 1006.20 1006.80 1007.45 1008.17
Thickness
5786 5786 5785 5784 5784 5783 5782 5781 5781 5780 5778 5777 5776 5775 5773 5772 5770 5767 5764 5762 5761 5759 5758 5756 5754 5753 5753 5753 5752 5752 5751 5748 5746 5744 5743 5741 5740 5738 5737 5736 5734 5733 5732
5786 5785 5784 5783 5783 5782 5781 5780 5780 5779 5777 5776 5775 5774 5773 5771 5769 5767 5763 5761 5760 5759 5757 5755 5754 5753 5753 5753 5752 5753 5751 5749 5746 5745 5743 5741 5739 5738 5737 5735 5734 5733 5732
5786 5785 5783 5783 5782 5782 5781 5780 5779 5778 5777 5776 5774 5773 5772 5771 5769 5767 5765 5762 5760 5758 5757 5755 5754 5753 5753 5752 5752 5752 5750 5748 5746 5744 5742 5741 5739 5738 5736 5735 5733 5732 5731
5786 5785 5783 5783 5782 5781 5780 5778 5776 5775 5774 5772 5771 5772 5772 5771 5769 5768 5766 5763 5761 5759 5757 5756 5754 5753 5752 5752 5751 5751 5750 5748 5746 5744 5742 5741 5740 5738 5736 5734 5733 5732 5731
5785 5784 5783 5782 5782 5781 5779 5778 5776 5774 5771 5770 5770 5770 5771 5770 5769 5768 5766 5764 5762 5761 5758 5756 5755 5753 5752 5751 5751 5750 5749 5747 5745 5743 5742 5741 5740 5738 5736 5734 5732 5731 5730
5785 5784 5782 5782 5782 5780 5778 5776 5774 5773 5771 5770 5770 5770 5770 5770 5769 5767 5766 5765 5763 5762 5759 5756 5753 5752 5751 5751 5750 5750 5748 5747 5745 5743 5742 5741 5739 5737 5735 5733 5731 5730 5729
5785 5784 5782 5781 5780 5778 5776 5775 5773 5770 5769 5770 5766 5764 5766 5769 5768 5766 5766 5764 5763 5762 5760 5757 5755 5753 5751 5750 5749 5749 5747 5746 5745 5743 5742 5740 5738 5737 5735 5733 5731 5730 5728
5785 5785 5782 5780 5779 5776 5774 5773 5770 5767 5767 5769 5763 5757 5753 5755 5761 5767 5765 5763 5763 5762 5760 5759 5757 5755 5753 5750 5748 5747 5746 5745 5743 5742 5741 5739 5737 5736 5734 5732 5731 5729 5728
5785 5783 5781 5779 5778 5776 5773 5772 5770 5766 5763 5766 5767 5760 5751 5746 5753 5759 5761 5762 5762 5761 5761 5760 5758 5756 5752 5751 5749 5746 5745 5744 5742 5741 5739 5738 5736 5735 5733 5731 5730 5728 5727
5785 5783 5782 5779 5777 5775 5773 5771 5771 5768 5764 5761 5764 5765 5763 5760 5752 5749 5755 5759 5760 5760 5760 5760 5759 5757 5753 5751 5749 5747 5745 5743 5742 5740 5738 5737 5735 5733 5731 5730 5729 5727 5726
5785 5783 5782 5780 5777 5775 5773 5771 5769 5768 5766 5762 5761 5762 5761 5760 5759 5751 5746 5750 5754 5758 5759 5759 5758 5756 5754 5752 5749 5747 5744 5743 5741 5739 5737 5736 5734 5732 5730 5729 5727 5726 5724
5783 5782 5781 5779 5777 5775 5773 5770 5769 5767 5765 5763 5762 5761 5759 5756 5754 5752 5748 5748 5748 5753 5757 5757 5757 5756 5754 5753 5750 5747 5744 5742 5740 5738 5736 5734 5732 5730 5729 5727 5726 5724 5723
5779 5779 5779 5777 5775 5774 5773 5771 5768 5766 5765 5763 5761 5760 5760 5759 5758 5755 5751 5748 5748 5750 5752 5754 5756 5756 5754 5751 5749 5746 5744 5741 5740 5738 5735 5733 5731 5729 5727 5726 5724 5722 5721
5778 5778 5777 5775 5774 5773 5772 5769 5767 5765 5764 5762 5761 5759 5758 5759 5759 5757 5753 5748 5744 5745 5746 5748 5753 5754 5753 5751 5749 5746 5743 5741 5739 5736 5734 5732 5730 5728 5726 5724 5722 5720 5719
5777 5775 5774 5772 5771 5769 5768 5767 5764 5763 5761 5760 5759 5758 5756 5757 5757 5757 5756 5752 5744 5738 5739 5744 5747 5750 5751 5750 5746 5744 5743 5740 5737 5735 5733 5731 5728 5726 5724 5722 5721 5719 5717
5773 5772 5770 5768 5767 5766 5765 5763 5762 5761 5759 5758 5757 5755 5754 5754 5754 5754 5754 5752 5749 5743 5738 5743 5745 5749 5749 5748 5745 5744 5742 5739 5737 5734 5732 5729 5727 5725 5723 5721 5719 5717 5715
5769 5768 5766 5764 5763 5762 5761 5760 5758 5757 5755 5754 5753 5752 5750 5750 5750 5750 5750 5749 5747 5744 5738 5741 5745 5746 5745 5744 5742 5741 5741 5738 5735 5733 5730 5728 5726 5724 5722 5720 5717 5715 5713
5765 5764 5762 5760 5759 5758 5757 5755 5754 5754 5751 5749 5748 5748 5747 5747 5745 5745 5744 5744 5744 5742 5738 5735 5738 5740 5740 5741 5740 5738 5739 5738 5736 5733 5730 5727 5725 5723 5721 5719 5717 5714 5712
5761 5760 5758 5755 5754 5753 5752 5751 5750 5749 5748 5747 5746 5744 5743 5742 5740 5740 5740 5739 5739 5739 5737 5733 5733 5735 5736 5737 5735 5735 5736 5735 5734 5732 5729 5726 5724 5722 5720 5718 5716 5714 5711
5757 5755 5754 5752 5751 5749 5748 5746 5745 5744 5744 5744 5743 5742 5741 5739 5736 5736 5735 5734 5734 5732 5731 5730 5729 5729 5730 5731 5730 5727 5727 5728 5728 5729 5726 5725 5722 5721 5718 5716 5714 5712 5709
5753 5751 5749 5748 5747 5745 5743 5741 5739 5739 5738 5738 5738 5738 5737 5736 5734 5732 5731 5729 5728 5726 5725 5724 5723 5723 5723 5722 5722 5723 5720 5722 5723 5723 5721 5721 5719 5717 5715 5712 5711 5709 5707
5748 5746 5744 5742 5741 5740 5737 5734 5732 5732 5732 5732 5731 5732 5732 5731 5730 5728 5727 5725 5723 5721 5719 5717 5718 5717 5717 5719 5719 5718 5715 5713 5713 5719 5716 5716 5717 5714 5714 5711 5709 5707 5705
5741 5739 5738 5736 5734 5732 5730 5728 5726 5725 5725 5725 5725 5724 5726 5728 5725 5723 5722 5721 5719 5717 5715 5714 5712 5713 5714 5715 5714 5712 5711 5709 5710 5714 5712 5710 5713 5711 5711 5711 5708 5706 5704
5734 5733 5732 5731 5729 5727 5724 5722 5720 5719 5719 5719 5719 5719 5718 5718 5719 5717 5716 5715 5714 5714 5712 5710 5710 5711 5713 5713 5712 5710 5708 5707 5709 5710 5709 5703 5706 5706 5708 5706 5705 5704 5701
5728 5727 5727 5725 5723 5721 5717 5715 5712 5712 5711 5711 5712 5712 5712 5711 5711 5709 5708 5707 5707 5708 5709 5708 5708 5707 5707 5708 5707 5704 5702 5699 5699 5702 5704 5700 5700 5700 5701 5701 5700 5699 5697
5723 5722 5721 5720 5718 5715 5712 5708 5705 5705 5704 5703 5704 5704 5703 5703 5702 5701 5700 5699 5699 5700 5701 5702 5701 5702 5702 5702 5701 5699 5697 5694 5693 5694 5699 5695 5694 5693 5691 5695 5695 5693 5690